Time,TemperatureF,DewpointF,PressureIn,WindDirection,WindDirectionDegrees,WindSpeedMPH,WindSpeedGustMPH,Humidity,HourlyPrecipIn,Conditions,Clouds,dailyrainin,SoftwareType,DateUTC
2013-04-19 00:00:00,66.7,61.7,30.04,ESE,105,0.0,0.0,84,0.00,,,0.00,Wunderground v.1.15,2013-04-19 04:00:00,
2013-04-19 00:05:00,66.8,61.8,30.03,South,182,1.0,1.0,84,0.00,,,0.00,Wunderground v.1.15,2013-04-19 04:05:00,
2013-04-19 00:10:00,66.9,61.9,30.03,ESE,119,1.0,1.0,84,0.00,,,0.00,Wunderground v.1.15,2013-04-19 04:10:00,
2013-04-19 00:15:00,66.9,61.9,30.03,SE,139,0.0,6.0,84,0.00,,,0.00,Wunderground v.1.15,2013-04-19 04:15:00,
2013-04-19 00:20:00,66.9,61.6,30.03,East,89,0.0,3.0,83,0.00,,,0.00,Wunderground v.1.15,2013-04-19 04:20:00,
2013-04-19 00:25:00,66.9,61.6,30.02,SE,144,0.0,3.0,83,0.00,,,0.00,Wunderground v.1.15,2013-04-19 04:25:00,
2013-04-19 00:30:00,66.9,61.9,30.02,West,261,1.0,1.0,84,0.00,,,0.00,Wunderground v.1.15,2013-04-19 04:30:00,
2013-04-19 00:35:00,66.9,61.9,30.02,South,180,1.0,1.0,84,0.00,,,0.00,Wunderground v.1.15,2013-04-19 04:35:00,
2013-04-19 00:40:00,66.8,61.8,30.02,ENE,69,1.0,1.0,84,0.00,,,0.00,Wunderground v.1.15,2013-04-19 04:40:00,
2013-04-19 00:45:00,66.9,61.9,30.02,East,88,1.0,1.0,84,0.00,,,0.00,Wunderground v.1.15,2013-04-19 04:45:00,
2013-04-19 00:50:00,66.9,61.9,30.02,SSW,201,1.0,1.0,84,0.00,,,0.00,Wunderground v.1.15,2013-04-19 04:50:00,
2013-04-19 00:55:00,66.9,61.9,30.02,ESE,121,1.0,1.0,84,0.00,,,0.00,Wunderground v.1.15,2013-04-19 04:55:00,
2013-04-19 01:00:00,66.8,61.8,30.02,SE,146,0.0,0.0,84,0.00,,,0.00,Wunderground v.1.15,2013-04-19 05:00:00,
2013-04-19 01:05:00,66.8,61.8,30.01,East,81,1.0,1.0,84,0.00,,,0.00,Wunderground v.1.15,2013-04-19 05:05:00,
2013-04-19 01:10:00,66.8,61.8,30.00,ESE,117,1.0,1.0,84,0.00,,,0.00,Wunderground v.1.15,2013-04-19 05:10:00,
2013-04-19 01:20:00,66.6,61.9,30.00,East,89,1.0,2.0,85,0.00,,,0.00,Wunderground v.1.15,2013-04-19 05:20:00,
2013-04-19 01:25:00,66.5,61.8,29.99,SE,124,1.0,2.0,85,0.00,,,0.00,Wunderground v.1.15,2013-04-19 05:25:00,
2013-04-19 01:30:00,66.5,61.8,29.99,ENE,73,1.0,1.0,85,0.00,,,0.00,Wunderground v.1.15,2013-04-19 05:30:00,
2013-04-19 01:35:00,66.5,61.8,29.99,South,175,0.0,1.0,85,0.00,,,0.00,Wunderground v.1.15,2013-04-19 05:35:00,
2013-04-19 01:40:00,66.5,62.2,29.99,SSW,194,0.0,0.0,86,0.00,,,0.00,Wunderground v.1.15,2013-04-19 05:40:00,
2013-04-19 01:45:00,66.4,62.1,29.99,SSE,163,1.0,1.0,86,0.00,,,0.00,Wunderground v.1.15,2013-04-19 05:45:00,
2013-04-19 01:50:00,66.4,62.1,29.98,SSE,148,1.0,1.0,86,0.00,,,0.00,Wunderground v.1.15,2013-04-19 05:50:00,
2013-04-19 02:00:00,66.4,62.1,29.98,ESE,123,1.0,1.0,86,0.00,,,0.00,Wunderground v.1.15,2013-04-19 06:00:00,
2013-04-19 02:05:00,66.4,62.1,29.98,SW,216,1.0,1.0,86,0.00,,,0.00,Wunderground v.1.15,2013-04-19 06:05:00,
2013-04-19 02:10:00,66.3,62.0,29.98,SSE,164,1.0,1.0,86,0.00,,,0.00,Wunderground v.1.15,2013-04-19 06:10:00,
2013-04-19 02:20:00,66.0,62.0,29.97,East,88,1.0,1.0,87,0.00,,,0.00,Wunderground v.1.15,2013-04-19 06:20:00,
2013-04-19 02:25:00,65.9,61.9,29.97,South,191,1.0,1.0,87,0.00,,,0.00,Wunderground v.1.15,2013-04-19 06:25:00,
2013-04-19 02:30:00,65.9,61.9,29.97,ENE,68,0.0,0.0,87,0.00,,,0.00,Wunderground v.1.15,2013-04-19 06:30:00,
2013-04-19 02:35:00,65.8,61.8,29.97,East,96,0.0,0.0,87,0.00,,,0.00,Wunderground v.1.15,2013-04-19 06:35:00,
2013-04-19 02:40:00,65.8,62.1,29.96,SE,127,0.0,0.0,88,0.00,,,0.00,Wunderground v.1.15,2013-04-19 06:40:00,
2013-04-19 02:50:00,65.7,62.0,29.96,South,175,1.0,1.0,88,0.00,,,0.00,Wunderground v.1.15,2013-04-19 06:50:00,
2013-04-19 02:55:00,65.7,62.0,29.96,ESE,113,1.0,1.0,88,0.00,,,0.00,Wunderground v.1.15,2013-04-19 06:55:00,
2013-04-19 03:00:00,65.6,61.9,29.96,SSW,192,0.0,0.0,88,0.00,,,0.00,Wunderground v.1.15,2013-04-19 07:00:00,
2013-04-19 03:05:00,65.7,62.0,29.96,SSE,163,1.0,1.0,88,0.00,,,0.00,Wunderground v.1.15,2013-04-19 07:05:00,
2013-04-19 03:10:00,65.7,62.0,29.95,SSE,147,1.0,1.0,88,0.00,,,0.00,Wunderground v.1.15,2013-04-19 07:10:00,
2013-04-19 03:15:00,65.7,62.0,29.95,SSE,147,0.0,1.0,88,0.00,,,0.00,Wunderground v.1.15,2013-04-19 07:15:00,
2013-04-19 03:20:00,65.6,61.9,29.95,SSE,158,0.0,0.0,88,0.00,,,0.00,Wunderground v.1.15,2013-04-19 07:20:00,
2013-04-19 03:25:00,65.6,62.3,29.95,SSE,167,0.0,0.0,89,0.00,,,0.00,Wunderground v.1.15,2013-04-19 07:25:00,
2013-04-19 03:30:00,65.6,62.3,29.94,South,175,0.0,0.0,89,0.00,,,0.00,Wunderground v.1.15,2013-04-19 07:30:00,
2013-04-19 03:35:00,65.5,62.2,29.94,SE,141,0.0,0.0,89,0.00,,,0.00,Wunderground v.1.15,2013-04-19 07:35:00,
2013-04-19 03:40:00,65.5,62.2,29.94,East,90,0.0,0.0,89,0.00,,,0.00,Wunderground v.1.15,2013-04-19 07:40:00,
2013-04-19 03:45:00,65.4,62.1,29.94,East,82,0.0,4.0,89,0.00,,,0.00,Wunderground v.1.15,2013-04-19 07:45:00,
2013-04-19 03:50:00,65.3,62.0,29.94,SSE,161,0.0,0.0,89,0.00,,,0.00,Wunderground v.1.15,2013-04-19 07:50:00,
2013-04-19 03:55:00,65.2,61.9,29.93,South,183,0.0,0.0,89,0.00,,,0.00,Wunderground v.1.15,2013-04-19 07:55:00,
2013-04-19 04:00:00,65.0,62.0,29.93,SSE,155,0.0,0.0,90,0.00,,,0.00,Wunderground v.1.15,2013-04-19 08:00:00,
2013-04-19 04:05:00,64.9,61.9,29.93,SSE,155,0.0,0.0,90,0.00,,,0.00,Wunderground v.1.15,2013-04-19 08:05:00,
2013-04-19 04:10:00,64.8,61.8,29.93,SSE,155,0.0,0.0,90,0.00,,,0.00,Wunderground v.1.15,2013-04-19 08:10:00,
2013-04-19 04:15:00,64.8,62.1,29.93,South,177,0.0,0.0,91,0.00,,,0.00,Wunderground v.1.15,2013-04-19 08:15:00,
2013-04-19 04:20:00,64.7,62.0,29.93,SE,133,0.0,0.0,91,0.00,,,0.00,Wunderground v.1.15,2013-04-19 08:20:00,
2013-04-19 04:25:00,64.7,62.0,29.92,SSE,151,0.0,0.0,91,0.00,,,0.00,Wunderground v.1.15,2013-04-19 08:25:00,
2013-04-19 04:30:00,64.7,62.0,29.93,SE,143,0.0,0.0,91,0.00,,,0.00,Wunderground v.1.15,2013-04-19 08:30:00,
2013-04-19 04:35:00,64.7,62.0,29.92,SE,145,0.0,0.0,91,0.00,,,0.00,Wunderground v.1.15,2013-04-19 08:35:00,
2013-04-19 04:40:00,64.6,61.9,29.92,ESE,110,0.0,0.0,91,0.00,,,0.00,Wunderground v.1.15,2013-04-19 08:40:00,
2013-04-19 04:50:00,64.6,62.2,29.92,SSE,157,0.0,0.0,92,0.00,,,0.00,Wunderground v.1.15,2013-04-19 08:50:00,
2013-04-19 04:55:00,64.6,62.2,29.92,SSE,159,0.0,0.0,92,0.00,,,0.00,Wunderground v.1.15,2013-04-19 08:55:00,
2013-04-19 05:00:00,64.7,62.3,29.92,SW,225,0.0,0.0,92,0.00,,,0.00,Wunderground v.1.15,2013-04-19 09:00:00,
2013-04-19 05:05:00,64.7,62.3,29.92,South,182,0.0,0.0,92,0.00,,,0.00,Wunderground v.1.15,2013-04-19 09:05:00,
2013-04-19 05:10:00,64.8,62.4,29.92,SSE,154,0.0,0.0,92,0.00,,,0.00,Wunderground v.1.15,2013-04-19 09:10:00,
2013-04-19 05:15:00,64.9,62.5,29.92,South,175,0.0,0.0,92,0.00,,,0.00,Wunderground v.1.15,2013-04-19 09:15:00,
2013-04-19 05:20:00,65.0,62.6,29.92,SE,131,0.0,0.0,92,0.00,,,0.00,Wunderground v.1.15,2013-04-19 09:20:00,
2013-04-19 05:30:00,65.2,62.8,29.91,SSE,167,0.0,2.0,92,0.00,,,0.00,Wunderground v.1.15,2013-04-19 09:30:00,
2013-04-19 05:35:00,65.3,62.9,29.91,South,169,0.0,2.0,92,0.00,,,0.00,Wunderground v.1.15,2013-04-19 09:35:00,
2013-04-19 05:40:00,65.4,63.0,29.91,SE,141,0.0,0.0,92,0.00,,,0.00,Wunderground v.1.15,2013-04-19 09:40:00,
2013-04-19 05:45:00,65.5,62.8,29.91,East,91,0.0,0.0,91,0.00,,,0.00,Wunderground v.1.15,2013-04-19 09:45:00,
2013-04-19 05:50:00,65.6,63.2,29.91,SSW,205,0.0,0.0,92,0.00,,,0.00,Wunderground v.1.15,2013-04-19 09:50:00,
2013-04-19 05:55:00,65.7,63.3,29.91,SE,136,0.0,0.0,92,0.00,,,0.00,Wunderground v.1.15,2013-04-19 09:55:00,
2013-04-19 06:00:00,65.8,63.1,29.91,South,177,0.0,0.0,91,0.00,,,0.00,Wunderground v.1.15,2013-04-19 10:00:00,
2013-04-19 06:10:00,66.1,63.4,29.91,SSW,196,1.0,1.0,91,0.00,,,0.00,Wunderground v.1.15,2013-04-19 10:10:00,
2013-04-19 06:15:00,66.2,63.5,29.90,South,173,0.0,1.0,91,0.00,,,0.00,Wunderground v.1.15,2013-04-19 10:15:00,
2013-04-19 06:20:00,66.3,63.6,29.91,ENE,77,0.0,0.0,91,0.00,,,0.00,Wunderground v.1.15,2013-04-19 10:20:00,
2013-04-19 06:30:00,66.4,63.7,29.91,SE,127,1.0,1.0,91,0.00,,,0.00,Wunderground v.1.15,2013-04-19 10:30:00,
2013-04-19 06:40:00,66.5,63.8,29.90,East,96,1.0,1.0,91,0.00,,,0.00,Wunderground v.1.15,2013-04-19 10:40:00,
2013-04-19 06:45:00,66.6,63.9,29.91,SSW,192,1.0,1.0,91,0.00,,,0.00,Wunderground v.1.15,2013-04-19 10:45:00,
2013-04-19 06:50:00,66.6,63.6,29.91,SSW,207,0.0,0.0,90,0.00,,,0.00,Wunderground v.1.15,2013-04-19 10:50:00,
2013-04-19 06:55:00,66.6,63.6,29.91,SSW,209,0.0,0.0,90,0.00,,,0.00,Wunderground v.1.15,2013-04-19 10:55:00,
2013-04-19 07:00:00,66.7,63.7,29.91,South,169,1.0,1.0,90,0.00,,,0.00,Wunderground v.1.15,2013-04-19 11:00:00,
2013-04-19 07:05:00,66.7,63.7,29.91,SSE,167,1.0,1.0,90,0.00,,,0.00,Wunderground v.1.15,2013-04-19 11:05:00,
2013-04-19 07:10:00,66.8,63.8,29.91,SSE,161,1.0,1.0,90,0.00,,,0.00,Wunderground v.1.15,2013-04-19 11:10:00,
2013-04-19 07:20:00,67.0,64.0,29.91,SE,142,2.0,6.0,90,0.00,,,0.00,Wunderground v.1.15,2013-04-19 11:20:00,
2013-04-19 07:25:00,67.0,64.0,29.91,ESE,117,2.0,6.0,90,0.00,,,0.00,Wunderground v.1.15,2013-04-19 11:25:00,
2013-04-19 07:30:00,67.1,64.1,29.91,South,175,1.0,1.0,90,0.00,,,0.00,Wunderground v.1.15,2013-04-19 11:30:00,
2013-04-19 07:35:00,67.3,63.9,29.91,SSW,203,1.0,1.0,89,0.00,,,0.00,Wunderground v.1.15,2013-04-19 11:35:00,
2013-04-19 07:40:00,67.4,64.0,29.91,ESE,120,1.0,1.0,89,0.00,,,0.00,Wunderground v.1.15,2013-04-19 11:40:00,
2013-04-19 07:45:00,67.5,64.1,29.91,SE,136,1.0,4.0,89,0.00,,,0.00,Wunderground v.1.15,2013-04-19 11:45:00,
2013-04-19 07:50:00,67.6,64.2,29.91,SSE,155,1.0,2.0,89,0.00,,,0.00,Wunderground v.1.15,2013-04-19 11:50:00,
2013-04-19 07:55:00,67.7,64.0,29.91,South,174,1.0,2.0,88,0.00,,,0.00,Wunderground v.1.15,2013-04-19 11:55:00,
2013-04-19 08:00:00,67.8,64.1,29.91,South,191,2.0,2.0,88,0.00,,,0.00,Wunderground v.1.15,2013-04-19 12:00:00,
2013-04-19 08:05:00,67.9,64.2,29.91,SSE,157,2.0,2.0,88,0.00,,,0.00,Wunderground v.1.15,2013-04-19 12:05:00,
2013-04-19 08:10:00,68.0,64.3,29.91,SE,141,1.0,1.0,88,0.00,,,0.00,Wunderground v.1.15,2013-04-19 12:10:00,
2013-04-19 08:15:00,68.0,64.3,29.91,SE,130,1.0,9.0,88,0.00,,,0.00,Wunderground v.1.15,2013-04-19 12:15:00,
2013-04-19 08:20:00,68.0,64.0,29.91,SSE,149,1.0,4.0,87,0.00,,,0.00,Wunderground v.1.15,2013-04-19 12:20:00,
2013-04-19 08:30:00,68.1,64.1,29.90,SW,222,1.0,5.0,87,0.00,,,0.00,Wunderground v.1.15,2013-04-19 12:30:00,
2013-04-19 08:35:00,68.2,64.2,29.91,SW,215,2.0,5.0,87,0.00,,,0.00,Wunderground v.1.15,2013-04-19 12:35:00,
2013-04-19 08:40:00,68.4,64.4,29.91,SSW,210,2.0,4.0,87,0.00,,,0.00,Wunderground v.1.15,2013-04-19 12:40:00,
2013-04-19 08:45:00,68.5,64.5,29.91,SSW,207,1.0,4.0,87,0.00,,,0.00,Wunderground v.1.15,2013-04-19 12:45:00,
2013-04-19 08:50:00,68.7,64.3,29.91,WSW,248,1.0,1.0,86,0.00,,,0.00,Wunderground v.1.15,2013-04-19 12:50:00,
2013-04-19 08:55:00,68.9,64.5,29.91,South,180,1.0,1.0,86,0.00,,,0.00,Wunderground v.1.15,2013-04-19 12:55:00,
2013-04-19 09:00:00,69.0,64.3,29.91,South,169,2.0,2.0,85,0.00,,,0.00,Wunderground v.1.15,2013-04-19 13:00:00,
2013-04-19 09:05:00,69.0,64.3,29.91,ESE,123,2.0,2.0,85,0.00,,,0.00,Wunderground v.1.15,2013-04-19 13:05:00,
2013-04-19 09:10:00,69.0,64.3,29.91,ESE,109,2.0,2.0,85,0.00,,,0.00,Wunderground v.1.15,2013-04-19 13:10:00,
2013-04-19 09:15:00,69.0,64.3,29.91,NW,320,2.0,2.0,85,0.00,,,0.00,Wunderground v.1.15,2013-04-19 13:15:00,
2013-04-19 09:20:00,69.1,64.4,29.91,SSW,192,1.0,4.0,85,0.00,,,0.00,Wunderground v.1.15,2013-04-19 13:20:00,
2013-04-19 09:25:00,69.1,64.4,29.91,South,188,2.0,4.0,85,0.00,,,0.00,Wunderground v.1.15,2013-04-19 13:25:00,
2013-04-19 09:30:00,69.1,64.4,29.91,ENE,75,1.0,2.0,85,0.00,,,0.00,Wunderground v.1.15,2013-04-19 13:30:00,
2013-04-19 09:35:00,69.2,64.5,29.90,SW,236,1.0,3.0,85,0.00,,,0.00,Wunderground v.1.15,2013-04-19 13:35:00,
2013-04-19 09:40:00,69.4,64.7,29.91,SSE,158,1.0,1.0,85,0.00,,,0.00,Wunderground v.1.15,2013-04-19 13:40:00,
2013-04-19 09:45:00,69.6,64.9,29.90,West,265,1.0,1.0,85,0.00,,,0.00,Wunderground v.1.15,2013-04-19 13:45:00,
2013-04-19 09:50:00,69.8,64.7,29.90,ENE,63,1.0,1.0,84,0.00,,,0.00,Wunderground v.1.15,2013-04-19 13:50:00,
2013-04-19 09:55:00,69.9,64.8,29.90,SSE,157,2.0,2.0,84,0.00,,,0.00,Wunderground v.1.15,2013-04-19 13:55:00,
2013-04-19 10:00:00,70.0,64.9,29.90,SSW,209,2.0,2.0,84,0.00,,,0.00,Wunderground v.1.15,2013-04-19 14:00:00,
2013-04-19 10:10:00,70.2,65.1,29.90,SSW,198,1.0,3.0,84,0.00,,,0.00,Wunderground v.1.15,2013-04-19 14:10:00,
2013-04-19 10:20:00,70.9,65.5,29.90,South,169,2.0,2.0,83,0.00,,,0.00,Wunderground v.1.15,2013-04-19 14:20:00,
2013-04-19 10:25:00,71.2,65.4,29.90,ESE,120,1.0,2.0,82,0.00,,,0.00,Wunderground v.1.15,2013-04-19 14:25:00,
2013-04-19 10:30:00,71.6,65.8,29.90,SE,134,1.0,1.0,82,0.00,,,0.00,Wunderground v.1.15,2013-04-19 14:30:00,
2013-04-19 10:35:00,72.2,66.4,29.89,ESE,103,1.0,1.0,82,0.00,,,0.00,Wunderground v.1.15,2013-04-19 14:35:00,
2013-04-19 10:40:00,72.5,66.0,29.89,WSW,254,2.0,2.0,80,0.00,,,0.00,Wunderground v.1.15,2013-04-19 14:40:00,
2013-04-19 10:45:00,72.5,66.0,29.89,SSW,208,4.0,4.0,80,0.00,,,0.00,Wunderground v.1.15,2013-04-19 14:45:00,
2013-04-19 10:50:00,72.9,66.4,29.89,South,180,2.0,2.0,80,0.00,,,0.00,Wunderground v.1.15,2013-04-19 14:50:00,
2013-04-19 11:00:00,72.7,65.8,29.90,SW,234,3.0,3.0,79,0.00,,,0.00,Wunderground v.1.15,2013-04-19 15:00:00,
2013-04-19 11:05:00,72.6,65.7,29.89,SE,144,2.0,3.0,79,0.00,,,0.00,Wunderground v.1.15,2013-04-19 15:05:00,
2013-04-19 11:10:00,72.7,66.2,29.89,SSW,213,1.0,3.0,80,0.00,,,0.00,Wunderground v.1.15,2013-04-19 15:10:00,
2013-04-19 11:20:00,73.4,66.9,29.88,SE,126,2.0,2.0,80,0.00,,,0.00,Wunderground v.1.15,2013-04-19 15:20:00,
2013-04-19 11:30:00,73.7,66.4,29.87,South,188,2.0,5.0,78,0.00,,,0.00,Wunderground v.1.15,2013-04-19 15:30:00,
2013-04-19 11:35:00,73.8,66.5,29.87,South,185,3.0,5.0,78,0.00,,,0.00,Wunderground v.1.15,2013-04-19 15:35:00,
2013-04-19 11:40:00,74.0,66.7,29.86,East,89,3.0,3.0,78,0.00,,,0.00,Wunderground v.1.15,2013-04-19 15:40:00,
2013-04-19 11:45:00,74.3,66.6,29.86,SSW,213,3.0,3.0,77,0.00,,,0.00,Wunderground v.1.15,2013-04-19 15:45:00,
2013-04-19 11:50:00,74.7,67.0,29.86,ESE,107,3.0,3.0,77,0.00,,,0.00,Wunderground v.1.15,2013-04-19 15:50:00,
2013-04-19 12:00:00,75.5,67.4,29.86,South,183,1.0,1.0,76,0.00,,,0.00,Wunderground v.1.15,2013-04-19 16:00:00,
2013-04-19 12:05:00,75.6,66.7,29.85,South,184,2.0,2.0,74,0.00,,,0.00,Wunderground v.1.15,2013-04-19 16:05:00,
2013-04-19 12:10:00,75.7,66.8,29.85,SW,216,2.0,5.0,74,0.00,,,0.00,Wunderground v.1.15,2013-04-19 16:10:00,
2013-04-19 12:15:00,76.0,67.1,29.85,South,171,2.0,5.0,74,0.00,,,0.00,Wunderground v.1.15,2013-04-19 16:15:00,
2013-04-19 12:20:00,76.1,66.8,29.84,WSW,243,3.0,3.0,73,0.00,,,0.00,Wunderground v.1.15,2013-04-19 16:20:00,
2013-04-19 12:30:00,76.0,66.7,29.84,SSW,196,4.0,4.0,73,0.00,,,0.00,Wunderground v.1.15,2013-04-19 16:30:00,
2013-04-19 12:40:00,76.7,67.4,29.82,ENE,65,3.0,7.0,73,0.00,,,0.00,Wunderground v.1.15,2013-04-19 16:40:00,
2013-04-19 12:45:00,76.9,67.2,29.83,SSE,156,3.0,7.0,72,0.00,,,0.00,Wunderground v.1.15,2013-04-19 16:45:00,
2013-04-19 12:50:00,77.1,67.4,29.82,South,185,3.0,5.0,72,0.00,,,0.00,Wunderground v.1.15,2013-04-19 16:50:00,
2013-04-19 13:00:00,77.3,67.6,29.81,ENE,74,3.0,3.0,72,0.00,,,0.00,Wunderground v.1.15,2013-04-19 17:00:00,
2013-04-19 13:05:00,77.8,67.2,29.81,SSE,167,3.0,4.0,70,0.00,,,0.00,Wunderground v.1.15,2013-04-19 17:05:00,
2013-04-19 13:10:00,78.1,67.1,29.81,South,183,5.0,5.0,69,0.00,,,0.00,Wunderground v.1.15,2013-04-19 17:10:00,
2013-04-19 13:15:00,78.0,67.4,29.80,East,98,5.0,5.0,70,0.00,,,0.00,Wunderground v.1.15,2013-04-19 17:15:00,
2013-04-19 13:20:00,78.3,68.1,29.80,East,86,3.0,3.0,71,0.00,,,0.00,Wunderground v.1.15,2013-04-19 17:20:00,
2013-04-19 13:25:00,78.9,67.9,29.80,SE,129,2.0,5.0,69,0.00,,,0.00,Wunderground v.1.15,2013-04-19 17:25:00,
2013-04-19 13:30:00,78.9,67.4,29.80,South,171,2.0,5.0,68,0.00,,,0.00,Wunderground v.1.15,2013-04-19 17:30:00,
2013-04-19 13:35:00,78.3,66.9,29.80,SSE,165,3.0,5.0,68,0.00,,,0.00,Wunderground v.1.15,2013-04-19 17:35:00,
2013-04-19 13:40:00,77.8,66.8,29.80,SSW,204,3.0,3.0,69,0.00,,,0.00,Wunderground v.1.15,2013-04-19 17:40:00,
2013-04-19 13:45:00,77.4,66.8,29.80,SSE,166,2.0,7.0,70,0.00,,,0.00,Wunderground v.1.15,2013-04-19 17:45:00,
2013-04-19 13:50:00,77.1,67.0,29.80,SSW,194,2.0,2.0,71,0.00,,,0.00,Wunderground v.1.15,2013-04-19 17:50:00,
2013-04-19 13:55:00,76.8,66.7,29.80,SW,232,2.0,2.0,71,0.00,,,0.00,Wunderground v.1.15,2013-04-19 17:55:00,
2013-04-19 14:00:00,76.7,67.0,29.79,South,175,1.0,1.0,72,0.00,,,0.00,Wunderground v.1.15,2013-04-19 18:00:00,
2013-04-19 14:10:00,77.3,67.2,29.78,East,94,3.0,3.0,71,0.00,,,0.00,Wunderground v.1.15,2013-04-19 18:10:00,
2013-04-19 14:15:00,77.7,67.5,29.78,SSE,167,3.0,6.0,71,0.00,,,0.00,Wunderground v.1.15,2013-04-19 18:15:00,
2013-04-19 14:20:00,78.0,67.8,29.78,SSE,161,2.0,2.0,71,0.00,,,0.00,Wunderground v.1.15,2013-04-19 18:20:00,
2013-04-19 14:25:00,78.2,67.6,29.78,SSW,195,2.0,2.0,70,0.00,,,0.00,Wunderground v.1.15,2013-04-19 18:25:00,
2013-04-19 14:30:00,78.5,67.9,29.78,West,280,1.0,1.0,70,0.00,,,0.00,Wunderground v.1.15,2013-04-19 18:30:00,
2013-04-19 14:35:00,78.7,68.1,29.77,SSE,151,1.0,1.0,70,0.00,,,0.00,Wunderground v.1.15,2013-04-19 18:35:00,
2013-04-19 14:40:00,78.9,67.9,29.77,East,97,2.0,2.0,69,0.00,,,0.00,Wunderground v.1.15,2013-04-19 18:40:00,
2013-04-19 14:45:00,79.0,68.0,29.76,South,175,2.0,2.0,69,0.00,,,0.00,Wunderground v.1.15,2013-04-19 18:45:00,
2013-04-19 14:50:00,79.0,67.5,29.76,East,79,2.0,2.0,68,0.00,,,0.00,Wunderground v.1.15,2013-04-19 18:50:00,
2013-04-19 14:55:00,78.8,67.3,29.76,SSW,192,2.0,2.0,68,0.00,,,0.00,Wunderground v.1.15,2013-04-19 18:55:00,
2013-04-19 15:00:00,78.7,67.2,29.76,South,172,2.0,2.0,68,0.00,,,0.00,Wunderground v.1.15,2013-04-19 19:00:00,
2013-04-19 15:05:00,78.7,67.7,29.75,South,171,1.0,2.0,69,0.00,,,0.00,Wunderground v.1.15,2013-04-19 19:05:00,
2013-04-19 15:10:00,78.7,67.2,29.75,SSE,148,2.0,2.0,68,0.00,,,0.00,Wunderground v.1.15,2013-04-19 19:10:00,
2013-04-19 15:15:00,78.7,67.2,29.75,SSE,165,2.0,2.0,68,0.00,,,0.00,Wunderground v.1.15,2013-04-19 19:15:00,
2013-04-19 15:20:00,78.7,67.7,29.74,SSE,167,2.0,4.0,69,0.00,,,0.00,Wunderground v.1.15,2013-04-19 19:20:00,
2013-04-19 15:25:00,78.9,67.4,29.74,East,90,2.0,4.0,68,0.00,,,0.00,Wunderground v.1.15,2013-04-19 19:25:00,
2013-04-19 15:30:00,78.8,67.3,29.73,SSW,195,1.0,1.0,68,0.00,,,0.00,Wunderground v.1.15,2013-04-19 19:30:00,
2013-04-19 15:35:00,78.7,67.2,29.74,SSE,155,1.0,4.0,68,0.00,,,0.00,Wunderground v.1.15,2013-04-19 19:35:00,
2013-04-19 15:40:00,77.9,68.9,29.75,SW,231,1.0,1.0,74,0.00,,,0.00,Wunderground v.1.15,2013-04-19 19:40:00,
2013-04-19 15:50:00,70.4,65.0,29.73,ESE,120,5.0,5.0,83,0.00,,,0.00,Wunderground v.1.15,2013-04-19 19:50:00,
2013-04-19 15:55:00,69.5,66.4,29.73,SW,219,4.0,5.0,90,0.00,,,0.00,Wunderground v.1.15,2013-04-19 19:55:00,
2013-04-19 16:00:00,70.0,67.9,29.73,WSW,243,1.0,1.0,93,0.00,,,0.00,Wunderground v.1.15,2013-04-19 20:00:00,
2013-04-19 16:05:00,70.8,69.0,29.72,South,186,0.0,1.0,94,0.00,,,0.00,Wunderground v.1.15,2013-04-19 20:05:00,
2013-04-19 16:10:00,71.6,69.8,29.72,SSW,201,0.0,0.0,94,0.00,,,0.00,Wunderground v.1.15,2013-04-19 20:10:00,
2013-04-19 16:20:00,72.3,68.5,29.71,WSW,251,2.0,9.0,88,0.00,,,0.00,Wunderground v.1.15,2013-04-19 20:20:00,
2013-04-19 16:25:00,73.1,68.3,29.71,SW,223,3.0,9.0,85,0.00,,,0.00,Wunderground v.1.15,2013-04-19 20:25:00,
2013-04-19 16:30:00,73.6,68.5,29.71,South,175,2.0,2.0,84,0.00,,,0.00,Wunderground v.1.15,2013-04-19 20:30:00,
2013-04-19 16:35:00,74.0,67.8,29.71,SSE,162,2.0,2.0,81,0.00,,,0.00,Wunderground v.1.15,2013-04-19 20:35:00,
2013-04-19 16:40:00,74.5,67.9,29.71,SE,132,2.0,2.0,80,0.00,,,0.00,Wunderground v.1.15,2013-04-19 20:40:00,
2013-04-19 16:45:00,75.1,67.8,29.71,SSE,168,2.0,2.0,78,0.00,,,0.00,Wunderground v.1.15,2013-04-19 20:45:00,
2013-04-19 16:50:00,75.4,68.1,29.71,East,87,2.0,2.0,78,0.00,,,0.00,Wunderground v.1.15,2013-04-19 20:50:00,
2013-04-19 16:55:00,75.7,67.6,29.71,SSW,198,1.0,2.0,76,0.00,,,0.00,Wunderground v.1.15,2013-04-19 20:55:00,
2013-04-19 17:00:00,76.0,67.9,29.70,East,93,2.0,2.0,76,0.00,,,0.00,Wunderground v.1.15,2013-04-19 21:00:00,
2013-04-19 17:05:00,76.5,67.6,29.70,SSE,165,2.0,2.0,74,0.00,,,0.00,Wunderground v.1.15,2013-04-19 21:05:00,
2013-04-19 17:10:00,76.8,67.9,29.70,SW,221,2.0,2.0,74,0.00,,,0.00,Wunderground v.1.15,2013-04-19 21:10:00,
2013-04-19 17:15:00,76.8,67.5,29.70,SSW,213,2.0,4.0,73,0.00,,,0.00,Wunderground v.1.15,2013-04-19 21:15:00,
2013-04-19 17:20:00,77.0,67.3,29.70,SE,144,2.0,2.0,72,0.00,,,0.00,Wunderground v.1.15,2013-04-19 21:20:00,
2013-04-19 17:25:00,77.1,67.4,29.71,SSE,148,2.0,2.0,72,0.00,,,0.00,Wunderground v.1.15,2013-04-19 21:25:00,
2013-04-19 17:30:00,77.1,67.4,29.70,ESE,108,1.0,8.0,72,0.00,,,0.00,Wunderground v.1.15,2013-04-19 21:30:00,
2013-04-19 17:35:00,77.1,67.0,29.71,SSE,165,1.0,8.0,71,0.00,,,0.00,Wunderground v.1.15,2013-04-19 21:35:00,
2013-04-19 17:40:00,76.6,66.5,29.73,WSW,242,3.0,3.0,71,0.00,,,0.00,Wunderground v.1.15,2013-04-19 21:40:00,
2013-04-19 17:45:00,74.8,66.3,29.73,SSE,155,4.0,4.0,75,0.00,,,0.00,Wunderground v.1.15,2013-04-19 21:45:00,
2013-04-19 17:50:00,73.2,66.3,29.73,West,265,2.0,3.0,79,0.00,,,0.00,Wunderground v.1.15,2013-04-19 21:50:00,
2013-04-19 18:00:00,70.9,66.2,29.74,South,171,1.0,1.0,85,0.00,,,0.00,Wunderground v.1.15,2013-04-19 22:00:00,
2013-04-19 18:10:00,69.3,65.3,29.75,South,183,3.0,3.0,87,0.00,,,0.00,Wunderground v.1.15,2013-04-19 22:10:00,
2013-04-19 18:15:00,68.6,64.9,29.75,SSW,209,3.0,3.0,88,0.00,,,0.00,Wunderground v.1.15,2013-04-19 22:15:00,
2013-04-19 18:20:00,68.1,64.7,29.76,SW,226,1.0,1.0,89,0.00,,,0.00,Wunderground v.1.15,2013-04-19 22:20:00,
2013-04-19 18:30:00,67.1,64.4,29.77,SE,143,1.0,1.0,91,0.00,,,0.00,Wunderground v.1.15,2013-04-19 22:30:00,
2013-04-19 18:35:00,66.8,64.1,29.77,SSE,156,1.0,1.0,91,0.00,,,0.00,Wunderground v.1.15,2013-04-19 22:35:00,
2013-04-19 18:40:00,66.5,64.1,29.77,SW,231,1.0,1.0,92,0.00,,,0.00,Wunderground v.1.15,2013-04-19 22:40:00,
2013-04-19 18:50:00,66.5,64.4,29.78,SSW,193,1.0,1.0,93,0.00,,,0.00,Wunderground v.1.15,2013-04-19 22:50:00,
2013-04-19 18:55:00,66.5,64.4,29.78,SSW,200,1.0,1.0,93,0.00,,,0.00,Wunderground v.1.15,2013-04-19 22:55:00,
2013-04-19 19:00:00,66.5,64.4,29.77,South,184,1.0,1.0,93,0.00,,,0.00,Wunderground v.1.15,2013-04-19 23:00:00,
2013-04-19 19:05:00,66.5,64.4,29.77,South,189,1.0,1.0,93,0.00,,,0.00,Wunderground v.1.15,2013-04-19 23:05:00,
2013-04-19 19:10:00,66.5,64.4,29.76,SSE,165,0.0,0.0,93,0.00,,,0.00,Wunderground v.1.15,2013-04-19 23:10:00,
2013-04-19 19:15:00,66.4,64.3,29.76,SSW,194,0.0,0.0,93,0.00,,,0.00,Wunderground v.1.15,2013-04-19 23:15:00,
2013-04-19 19:20:00,66.2,64.1,29.75,ENE,63,1.0,1.0,93,0.00,,,0.00,Wunderground v.1.15,2013-04-19 23:20:00,
2013-04-19 19:30:00,65.9,63.8,29.75,ESE,102,0.0,0.0,93,0.00,,,0.00,Wunderground v.1.15,2013-04-19 23:30:00,
2013-04-19 19:35:00,65.8,63.7,29.75,SSW,192,0.0,0.0,93,0.00,,,0.00,Wunderground v.1.15,2013-04-19 23:35:00,
2013-04-19 19:40:00,65.8,63.7,29.77,NE,51,0.0,0.0,93,0.00,,,0.00,Wunderground v.1.15,2013-04-19 23:40:00,
2013-04-19 19:45:00,65.7,63.6,29.77,ESE,103,0.0,0.0,93,0.00,,,0.00,Wunderground v.1.15,2013-04-19 23:45:00,
2013-04-19 19:50:00,65.6,63.5,29.77,SSE,157,0.0,2.0,93,0.00,,,0.00,Wunderground v.1.15,2013-04-19 23:50:00,
2013-04-19 20:00:00,65.6,63.8,29.77,SSE,167,0.0,0.0,94,0.00,,,0.00,Wunderground v.1.15,2013-04-20 00:00:00,
2013-04-19 20:05:00,65.6,63.8,29.77,ESE,104,0.0,0.0,94,0.00,,,0.00,Wunderground v.1.15,2013-04-20 00:05:00,
2013-04-19 20:10:00,65.5,63.7,29.77,SE,142,0.0,0.0,94,0.00,,,0.00,Wunderground v.1.15,2013-04-20 00:10:00,
2013-04-19 20:15:00,65.5,63.7,29.77,WSW,253,0.0,0.0,94,0.00,,,0.00,Wunderground v.1.15,2013-04-20 00:15:00,
2013-04-19 20:20:00,65.5,63.7,29.78,East,95,0.0,0.0,94,0.00,,,0.00,Wunderground v.1.15,2013-04-20 00:20:00,
2013-04-19 20:25:00,65.5,63.7,29.77,ESE,107,0.0,0.0,94,0.00,,,0.00,Wunderground v.1.15,2013-04-20 00:25:00,
2013-04-19 20:30:00,65.5,63.7,29.77,East,92,0.0,0.0,94,0.00,,,0.00,Wunderground v.1.15,2013-04-20 00:30:00,
2013-04-19 20:35:00,65.5,63.7,29.79,South,185,1.0,1.0,94,0.00,,,0.00,Wunderground v.1.15,2013-04-20 00:35:00,
2013-04-19 20:40:00,65.5,64.0,29.79,SSE,158,1.0,1.0,95,0.00,,,0.00,Wunderground v.1.15,2013-04-20 00:40:00,
2013-04-19 20:50:00,65.5,64.0,29.79,SSE,161,1.0,1.0,95,0.00,,,0.00,Wunderground v.1.15,2013-04-20 00:50:00,
2013-04-19 21:00:00,65.4,63.9,29.79,South,190,1.0,1.0,95,0.00,,,0.00,Wunderground v.1.15,2013-04-20 01:00:00,
2013-04-19 21:05:00,65.4,63.6,29.79,South,172,1.0,1.0,94,0.00,,,0.00,Wunderground v.1.15,2013-04-20 01:05:00,
2013-04-19 21:10:00,65.3,63.5,29.78,ESE,120,1.0,1.0,94,0.00,,,0.00,Wunderground v.1.15,2013-04-20 01:10:00,
2013-04-19 21:15:00,65.3,63.5,29.79,SSW,200,1.0,1.0,94,0.00,,,0.00,Wunderground v.1.15,2013-04-20 01:15:00,
2013-04-19 21:20:00,65.2,63.4,29.79,South,181,1.0,1.0,94,0.00,,,0.00,Wunderground v.1.15,2013-04-20 01:20:00,
2013-04-19 21:25:00,65.2,63.4,29.79,ENE,77,1.0,2.0,94,0.00,,,0.00,Wunderground v.1.15,2013-04-20 01:25:00,
2013-04-19 21:30:00,65.2,63.4,29.79,SSE,165,1.0,1.0,94,0.00,,,0.00,Wunderground v.1.15,2013-04-20 01:30:00,
2013-04-19 21:35:00,65.1,63.3,29.79,ESE,115,0.0,7.0,94,0.00,,,0.00,Wunderground v.1.15,2013-04-20 01:35:00,
2013-04-19 21:40:00,65.1,63.6,29.79,SSW,196,0.0,0.0,95,0.00,,,0.00,Wunderground v.1.15,2013-04-20 01:40:00,
2013-04-19 21:50:00,65.0,63.5,29.79,South,176,0.0,1.0,95,0.00,,,0.00,Wunderground v.1.15,2013-04-20 01:50:00,
2013-04-19 22:00:00,64.9,63.4,29.78,SSE,151,1.0,1.0,95,0.00,,,0.00,Wunderground v.1.15,2013-04-20 02:00:00,
2013-04-19 22:05:00,65.0,63.5,29.79,West,279,1.0,1.0,95,0.00,,,0.00,Wunderground v.1.15,2013-04-20 02:05:00,
2013-04-19 22:10:00,65.0,63.5,29.79,SSE,168,1.0,1.0,95,0.00,,,0.00,Wunderground v.1.15,2013-04-20 02:10:00,
2013-04-19 22:15:00,64.9,63.4,29.79,SE,142,1.0,1.0,95,0.00,,,0.00,Wunderground v.1.15,2013-04-20 02:15:00,
2013-04-19 22:20:00,64.8,63.3,29.78,SE,133,1.0,1.0,95,0.00,,,0.00,Wunderground v.1.15,2013-04-20 02:20:00,
2013-04-19 22:25:00,64.8,63.3,29.78,East,90,1.0,1.0,95,0.00,,,0.00,Wunderground v.1.15,2013-04-20 02:25:00,
2013-04-19 22:30:00,64.7,63.2,29.77,SSW,211,0.0,0.0,95,0.00,,,0.00,Wunderground v.1.15,2013-04-20 02:30:00,
2013-04-19 22:40:00,64.5,63.0,29.77,SW,221,0.0,0.0,95,0.00,,,0.00,Wunderground v.1.15,2013-04-20 02:40:00,
2013-04-19 22:45:00,64.4,62.9,29.77,South,190,0.0,0.0,95,0.00,,,0.00,Wunderground v.1.15,2013-04-20 02:45:00,
2013-04-19 22:50:00,64.4,62.9,29.77,South,179,0.0,0.0,95,0.00,,,0.00,Wunderground v.1.15,2013-04-20 02:50:00,
2013-04-19 22:55:00,64.3,62.8,29.77,SSE,162,0.0,0.0,95,0.00,,,0.00,Wunderground v.1.15,2013-04-20 02:55:00,
2013-04-19 23:00:00,64.2,62.7,29.78,South,179,0.0,0.0,95,0.00,,,0.00,Wunderground v.1.15,2013-04-20 03:00:00,
2013-04-19 23:05:00,64.2,62.7,29.78,SE,124,1.0,1.0,95,0.00,,,0.00,Wunderground v.1.15,2013-04-20 03:05:00,
2013-04-19 23:10:00,64.1,62.6,29.78,SW,225,1.0,1.0,95,0.00,,,0.00,Wunderground v.1.15,2013-04-20 03:10:00,
2013-04-19 23:15:00,64.1,62.6,29.78,SW,219,1.0,1.0,95,0.00,,,0.00,Wunderground v.1.15,2013-04-20 03:15:00,
2013-04-19 23:20:00,64.0,62.2,29.78,South,186,0.0,0.0,94,0.00,,,0.00,Wunderground v.1.15,2013-04-20 03:20:00,
2013-04-19 23:30:00,64.0,62.5,29.79,SSE,158,0.0,0.0,95,0.00,,,0.00,Wunderground v.1.15,2013-04-20 03:30:00,
2013-04-19 23:35:00,64.0,62.5,29.79,SSE,158,0.0,0.0,95,0.00,,,0.00,Wunderground v.1.15,2013-04-20 03:35:00,
2013-04-19 23:40:00,64.0,62.5,29.80,SSW,196,0.0,4.0,95,0.00,,,0.00,Wunderground v.1.15,2013-04-20 03:40:00,
2013-04-19 23:45:00,63.9,62.4,29.80,West,260,1.0,4.0,95,0.00,,,0.00,Wunderground v.1.15,2013-04-20 03:45:00,
2013-04-19 23:50:00,63.8,62.3,29.80,WSW,257,1.0,1.0,95,0.00,,,0.00,Wunderground v.1.15,2013-04-20 03:50:00,
2013-04-19 23:55:00,63.7,61.9,29.81,WSW,256,1.0,1.0,94,0.00,,,0.00,Wunderground v.1.15,2013-04-20 03:55:00,